Time,TemperatureF,DewpointF,PressureIn,WindDirection,WindDirectionDegrees,WindSpeedMPH,WindSpeedGustMPH,Humidity,HourlyPrecipIn,Conditions,Clouds,dailyrainin,SoftwareType,DateUTC
2013-09-27 00:02:00,31.5,31.3,24.14,North,0,0.0,0.0,99,0.00,,,0.00,meteohub,2013-09-27 06:02:00,
2013-09-27 00:07:00,31.5,31.3,24.14,North,0,0.0,0.0,99,0.00,,,0.00,meteohub,2013-09-27 06:07:00,
2013-09-27 00:12:00,31.5,31.3,24.14,North,0,0.0,0.0,99,0.00,,,0.00,meteohub,2013-09-27 06:12:00,
2013-09-27 00:17:00,31.6,31.5,24.14,North,0,0.0,0.0,99,0.00,,,0.00,meteohub,2013-09-27 06:17:00,
2013-09-27 00:22:00,31.6,31.5,24.15,North,0,0.0,0.0,99,0.00,,,0.00,meteohub,2013-09-27 06:22:00,
2013-09-27 00:27:00,31.6,31.5,24.14,North,0,0.0,0.0,99,0.00,,,0.00,meteohub,2013-09-27 06:27:00,
2013-09-27 00:32:00,31.6,31.5,24.14,North,0,0.0,0.0,99,0.00,,,0.00,meteohub,2013-09-27 06:32:00,
2013-09-27 00:37:00,31.6,31.5,24.14,North,0,0.0,0.0,99,0.00,,,0.00,meteohub,2013-09-27 06:37:00,
2013-09-27 00:42:00,31.8,31.6,24.15,North,0,0.0,0.0,99,0.00,,,0.00,meteohub,2013-09-27 06:42:00,
2013-09-27 00:47:00,31.8,31.6,24.14,North,0,0.0,0.0,99,0.00,,,0.00,meteohub,2013-09-27 06:47:00,
2013-09-27 00:52:00,32.0,31.8,24.15,North,0,0.0,0.0,99,0.00,,,0.00,meteohub,2013-09-27 06:52:00,
2013-09-27 00:57:00,32.0,31.8,24.15,North,0,0.0,0.0,99,0.00,,,0.00,meteohub,2013-09-27 06:57:00,
2013-09-27 01:02:00,31.6,31.5,24.14,North,0,0.0,0.0,99,0.00,,,0.00,meteohub,2013-09-27 07:02:00,
2013-09-27 01:07:00,31.6,31.5,24.14,North,0,0.0,0.0,99,0.00,,,0.00,meteohub,2013-09-27 07:07:00,
2013-09-27 01:12:00,31.1,30.9,24.14,North,0,0.0,0.0,99,0.00,,,0.00,meteohub,2013-09-27 07:12:00,
2013-09-27 01:17:00,31.6,31.5,24.14,North,0,0.0,0.0,99,0.00,,,0.00,meteohub,2013-09-27 07:17:00,
2013-09-27 01:22:00,31.6,31.5,24.14,North,0,0.0,0.0,99,0.00,,,0.00,meteohub,2013-09-27 07:22:00,
2013-09-27 01:27:00,31.8,31.6,24.14,North,0,0.0,0.0,99,0.00,,,0.00,meteohub,2013-09-27 07:27:00,
2013-09-27 01:32:00,31.8,31.6,24.14,North,0,0.0,0.0,99,0.00,,,0.00,meteohub,2013-09-27 07:32:00,
2013-09-27 01:37:00,32.0,31.8,24.14,North,0,0.0,0.0,99,0.00,,,0.00,meteohub,2013-09-27 07:37:00,
2013-09-27 01:42:00,32.0,31.8,24.14,North,0,0.0,0.0,99,0.00,,,0.00,meteohub,2013-09-27 07:42:00,
2013-09-27 01:47:00,32.0,31.8,24.14,North,0,0.0,0.0,99,0.00,,,0.00,meteohub,2013-09-27 07:47:00,
2013-09-27 01:52:00,32.2,32.0,24.14,North,0,0.0,0.0,99,0.00,,,0.00,meteohub,2013-09-27 07:52:00,
2013-09-27 01:57:00,32.0,31.8,24.14,North,0,0.0,0.0,99,0.00,,,0.00,meteohub,2013-09-27 07:57:00,
2013-09-27 02:02:00,32.0,31.8,24.14,North,0,0.0,0.0,99,0.00,,,0.00,meteohub,2013-09-27 08:02:00,
2013-09-27 02:07:00,32.0,31.8,24.14,North,0,0.0,0.0,99,0.00,,,0.00,meteohub,2013-09-27 08:07:00,
2013-09-27 02:12:00,32.0,31.3,24.13,North,0,0.0,0.0,97,0.00,,,0.00,meteohub,2013-09-27 08:12:00,
2013-09-27 02:17:00,32.0,31.5,24.14,North,0,0.0,0.0,98,0.00,,,0.00,meteohub,2013-09-27 08:17:00,
2013-09-27 02:22:00,32.0,31.5,24.13,North,0,0.0,0.0,98,0.00,,,0.00,meteohub,2013-09-27 08:22:00,
2013-09-27 02:27:00,31.8,31.3,24.13,North,0,0.0,0.0,98,0.00,,,0.00,meteohub,2013-09-27 08:27:00,
2013-09-27 02:32:00,32.0,30.6,24.13,North,0,0.0,0.0,94,0.00,,,0.00,meteohub,2013-09-27 08:32:00,
2013-09-27 02:37:00,32.0,30.6,24.13,North,0,0.0,0.0,94,0.00,,,0.00,meteohub,2013-09-27 08:37:00,
2013-09-27 02:42:00,31.6,29.3,24.14,North,0,0.0,0.0,91,0.00,,,0.00,meteohub,2013-09-27 08:42:00,
2013-09-27 02:52:00,32.0,29.7,24.14,North,0,0.0,0.0,91,0.00,,,0.00,meteohub,2013-09-27 08:52:00,
2013-09-27 02:57:00,32.0,29.7,24.14,North,0,0.0,0.0,91,0.00,,,0.00,meteohub,2013-09-27 08:57:00,
2013-09-27 03:02:00,32.2,29.8,24.14,North,0,0.0,0.0,91,0.00,,,0.00,meteohub,2013-09-27 09:02:00,
2013-09-27 03:07:00,32.2,29.8,24.13,North,0,0.0,0.0,91,0.00,,,0.00,meteohub,2013-09-27 09:07:00,
2013-09-27 03:12:00,32.4,29.5,24.14,North,0,0.0,0.0,89,0.00,,,0.00,meteohub,2013-09-27 09:12:00,
2013-09-27 03:17:00,32.5,29.1,24.13,North,0,0.0,0.0,87,0.00,,,0.00,meteohub,2013-09-27 09:17:00,
2013-09-27 03:22:00,32.7,28.8,24.13,North,0,0.0,0.0,85,0.00,,,0.00,meteohub,2013-09-27 09:22:00,
2013-09-27 03:27:00,32.0,28.0,24.13,North,0,0.0,0.0,85,0.00,,,0.00,meteohub,2013-09-27 09:27:00,
2013-09-27 03:32:00,30.7,27.9,24.14,North,0,0.0,0.0,89,0.00,,,0.00,meteohub,2013-09-27 09:32:00,
2013-09-27 03:42:00,31.8,28.8,24.13,North,0,0.0,0.0,88,0.00,,,0.00,meteohub,2013-09-27 09:42:00,
2013-09-27 03:47:00,31.8,28.8,24.13,North,0,0.0,0.0,88,0.00,,,0.00,meteohub,2013-09-27 09:47:00,
2013-09-27 03:52:00,31.1,28.2,24.13,North,0,0.0,0.0,89,0.00,,,0.00,meteohub,2013-09-27 09:52:00,
2013-09-27 03:57:00,30.9,28.6,24.13,North,0,0.0,0.0,91,0.00,,,0.00,meteohub,2013-09-27 09:57:00,
2013-09-27 04:02:00,31.5,28.9,24.13,North,0,0.0,0.0,90,0.00,,,0.00,meteohub,2013-09-27 10:02:00,
2013-09-27 04:07:00,31.5,28.9,24.13,North,0,0.0,0.0,90,0.00,,,0.00,meteohub,2013-09-27 10:07:00,
2013-09-27 04:12:00,30.7,28.4,24.13,North,0,0.0,0.0,91,0.00,,,0.00,meteohub,2013-09-27 10:12:00,
2013-09-27 04:17:00,31.3,28.4,24.12,North,0,0.0,0.0,89,0.00,,,0.00,meteohub,2013-09-27 10:17:00,
2013-09-27 04:22:00,31.8,27.9,24.12,North,0,0.0,0.0,85,0.00,,,0.00,meteohub,2013-09-27 10:22:00,
2013-09-27 04:27:00,32.0,27.7,24.12,North,0,0.0,0.0,84,0.00,,,0.00,meteohub,2013-09-27 10:27:00,
2013-09-27 04:32:00,32.2,27.7,24.12,North,0,0.0,0.0,83,0.00,,,0.00,meteohub,2013-09-27 10:32:00,
2013-09-27 04:37:00,32.4,27.5,24.12,North,0,0.0,0.0,82,0.00,,,0.00,meteohub,2013-09-27 10:37:00,
2013-09-27 04:42:00,32.2,27.0,24.12,North,0,0.0,0.0,81,0.00,,,0.00,meteohub,2013-09-27 10:42:00,
2013-09-27 04:47:00,32.0,26.8,24.11,North,0,0.0,0.0,81,0.00,,,0.00,meteohub,2013-09-27 10:47:00,
2013-09-27 04:52:00,32.0,26.6,24.11,North,0,0.0,0.0,80,0.00,,,0.00,meteohub,2013-09-27 10:52:00,
2013-09-27 04:57:00,32.0,26.2,24.12,North,0,0.0,0.0,79,0.00,,,0.00,meteohub,2013-09-27 10:57:00,
2013-09-27 05:02:00,32.0,26.2,24.12,North,0,0.0,0.0,79,0.00,,,0.00,meteohub,2013-09-27 11:02:00,
2013-09-27 05:07:00,32.0,26.2,24.11,North,0,0.0,0.0,79,0.00,,,0.00,meteohub,2013-09-27 11:07:00,
2013-09-27 05:12:00,32.0,25.9,24.11,North,0,0.0,0.0,78,0.00,,,0.00,meteohub,2013-09-27 11:12:00,
2013-09-27 05:17:00,32.0,25.7,24.11,North,0,0.0,0.0,77,0.00,,,0.00,meteohub,2013-09-27 11:17:00,
2013-09-27 05:22:00,31.3,25.9,24.11,North,0,0.0,0.0,80,0.00,,,0.00,meteohub,2013-09-27 11:22:00,
2013-09-27 05:27:00,31.1,26.6,24.12,North,0,0.0,0.0,83,0.00,,,0.00,meteohub,2013-09-27 11:27:00,
2013-09-27 05:32:00,30.2,26.8,24.11,North,0,0.0,0.0,87,0.00,,,0.00,meteohub,2013-09-27 11:32:00,
2013-09-27 05:37:00,29.3,27.0,24.12,North,0,0.0,0.0,91,0.00,,,0.00,meteohub,2013-09-27 11:37:00,
2013-09-27 05:42:00,28.6,27.3,24.11,North,0,0.0,0.0,95,0.00,,,0.00,meteohub,2013-09-27 11:42:00,
2013-09-27 05:47:00,28.9,28.2,24.11,North,0,0.0,0.0,97,0.00,,,0.00,meteohub,2013-09-27 11:47:00,
2013-09-27 05:52:00,29.5,27.5,24.11,North,0,0.0,17.0,92,0.00,,,0.00,meteohub,2013-09-27 11:52:00,
2013-09-27 05:57:00,30.2,26.8,24.11,North,0,0.0,17.0,87,0.00,,,0.00,meteohub,2013-09-27 11:57:00,
2013-09-27 06:02:00,30.2,26.8,24.11,North,0,0.0,0.0,87,0.00,,,0.00,meteohub,2013-09-27 12:02:00,
2013-09-27 06:07:00,30.2,26.8,24.11,North,0,0.0,0.0,87,0.00,,,0.00,meteohub,2013-09-27 12:07:00,
2013-09-27 06:12:00,30.7,26.2,24.11,North,0,0.0,0.0,83,0.00,,,0.00,meteohub,2013-09-27 12:12:00,
2013-09-27 06:17:00,30.9,26.1,24.11,North,0,0.0,0.0,82,0.00,,,0.00,meteohub,2013-09-27 12:17:00,
2013-09-27 06:22:00,30.9,25.7,24.11,North,0,0.0,0.0,81,0.00,,,0.00,meteohub,2013-09-27 12:22:00,
2013-09-27 06:27:00,30.4,25.9,24.11,North,0,0.0,0.0,83,0.00,,,0.00,meteohub,2013-09-27 12:27:00,
2013-09-27 06:32:00,30.2,25.9,24.11,North,0,0.0,0.0,84,0.00,,,0.00,meteohub,2013-09-27 12:32:00,
2013-09-27 06:37:00,29.8,25.9,24.11,North,0,0.0,0.0,85,0.00,,,0.00,meteohub,2013-09-27 12:37:00,
2013-09-27 06:42:00,29.5,26.1,24.11,North,0,0.0,0.0,87,0.00,,,0.00,meteohub,2013-09-27 12:42:00,
2013-09-27 06:47:00,29.3,26.2,24.11,North,0,0.0,0.0,88,0.00,,,0.00,meteohub,2013-09-27 12:47:00,
2013-09-27 06:52:00,29.1,25.5,24.10,North,0,0.0,0.0,86,0.00,,,0.00,meteohub,2013-09-27 12:52:00,
2013-09-27 06:57:00,30.0,25.2,24.10,North,0,0.0,0.0,82,0.00,,,0.00,meteohub,2013-09-27 12:57:00,
2013-09-27 07:02:00,30.6,24.8,24.10,North,0,0.0,0.0,79,0.00,,,0.00,meteohub,2013-09-27 13:02:00,
2013-09-27 07:07:00,30.6,24.8,24.10,North,0,0.0,0.0,79,0.00,,,0.00,meteohub,2013-09-27 13:07:00,
2013-09-27 07:12:00,31.5,24.4,24.10,North,0,0.0,0.0,75,0.00,,,0.00,meteohub,2013-09-27 13:12:00,
2013-09-27 07:17:00,31.6,24.3,24.10,North,0,0.0,0.0,74,0.00,,,0.00,meteohub,2013-09-27 13:17:00,
2013-09-27 07:22:00,31.8,24.1,24.10,North,0,0.0,0.0,73,0.00,,,0.00,meteohub,2013-09-27 13:22:00,
2013-09-27 07:27:00,31.8,23.9,24.10,North,0,0.0,0.0,72,0.00,,,0.00,meteohub,2013-09-27 13:27:00,
2013-09-27 07:32:00,30.7,24.1,24.10,North,0,0.0,0.0,76,0.00,,,0.00,meteohub,2013-09-27 13:32:00,
2013-09-27 07:37:00,29.5,24.4,24.10,North,0,0.0,0.0,81,0.00,,,0.00,meteohub,2013-09-27 13:37:00,
2013-09-27 07:42:00,31.3,24.6,24.09,North,0,0.0,0.0,76,0.00,,,0.00,meteohub,2013-09-27 13:42:00,
2013-09-27 07:47:00,32.9,24.3,24.10,North,0,0.0,0.0,70,0.00,,,0.00,meteohub,2013-09-27 13:47:00,
2013-09-27 07:52:00,33.1,24.1,24.10,North,0,0.0,0.0,69,0.00,,,0.00,meteohub,2013-09-27 13:52:00,
2013-09-27 07:57:00,33.3,24.3,24.10,North,0,0.0,0.0,69,0.00,,,0.00,meteohub,2013-09-27 13:57:00,
2013-09-27 08:02:00,33.4,24.4,24.10,North,0,0.0,0.0,69,0.00,,,0.00,meteohub,2013-09-27 14:02:00,
2013-09-27 08:07:00,33.4,24.4,24.10,North,0,0.0,0.0,69,0.00,,,0.00,meteohub,2013-09-27 14:07:00,
2013-09-27 08:12:00,33.4,24.4,24.10,North,0,0.0,0.0,69,0.00,,,0.00,meteohub,2013-09-27 14:12:00,
2013-09-27 08:17:00,33.4,24.4,24.10,North,0,0.0,0.0,69,0.00,,,0.00,meteohub,2013-09-27 14:17:00,
2013-09-27 08:22:00,33.3,24.8,24.09,North,0,0.0,0.0,71,0.00,,,0.00,meteohub,2013-09-27 14:22:00,
2013-09-27 08:27:00,33.3,24.8,24.10,North,0,0.0,0.0,71,0.00,,,0.00,meteohub,2013-09-27 14:27:00,
2013-09-27 08:32:00,33.3,24.8,24.10,North,0,0.0,0.0,71,0.00,,,0.00,meteohub,2013-09-27 14:32:00,
2013-09-27 08:37:00,33.4,24.8,24.10,North,0,0.0,0.0,70,0.00,,,0.00,meteohub,2013-09-27 14:37:00,
2013-09-27 08:42:00,33.3,24.8,24.10,North,0,0.0,0.0,71,0.00,,,0.00,meteohub,2013-09-27 14:42:00,
2013-09-27 08:47:00,33.6,25.2,24.10,North,0,0.0,0.0,71,0.00,,,0.00,meteohub,2013-09-27 14:47:00,
2013-09-27 08:52:00,33.8,25.0,24.10,North,0,0.0,0.0,70,0.00,,,0.00,meteohub,2013-09-27 14:52:00,
2013-09-27 08:57:00,34.2,25.0,24.10,North,0,0.0,0.0,69,0.00,,,0.00,meteohub,2013-09-27 14:57:00,
2013-09-27 09:02:00,34.3,25.2,24.10,North,0,0.0,0.0,69,0.00,,,0.00,meteohub,2013-09-27 15:02:00,
2013-09-27 09:07:00,34.3,25.2,24.10,North,0,0.0,0.0,69,0.00,,,0.00,meteohub,2013-09-27 15:07:00,
2013-09-27 09:12:00,34.7,25.9,24.10,North,0,0.0,0.0,70,0.00,,,0.00,meteohub,2013-09-27 15:12:00,
2013-09-27 09:17:00,34.2,27.3,24.10,North,0,0.0,0.0,76,0.00,,,0.00,meteohub,2013-09-27 15:17:00,
2013-09-27 09:22:00,34.3,27.9,24.10,North,0,0.0,0.0,77,0.00,,,0.00,meteohub,2013-09-27 15:22:00,
2013-09-27 09:27:00,34.5,27.7,24.10,North,0,0.0,0.0,76,0.00,,,0.00,meteohub,2013-09-27 15:27:00,
2013-09-27 09:32:00,34.3,27.5,24.10,North,0,0.0,0.0,76,0.00,,,0.00,meteohub,2013-09-27 15:32:00,
2013-09-27 09:37:00,34.3,27.5,24.09,North,0,0.0,0.0,76,0.00,,,0.00,meteohub,2013-09-27 15:37:00,
2013-09-27 09:42:00,34.7,27.7,24.10,North,0,0.0,0.0,75,0.00,,,0.00,meteohub,2013-09-27 15:42:00,
2013-09-27 09:47:00,35.1,27.7,24.09,North,0,0.0,0.0,74,0.00,,,0.00,meteohub,2013-09-27 15:47:00,
2013-09-27 09:52:00,35.1,27.9,24.10,North,0,0.0,0.0,75,0.00,,,0.00,meteohub,2013-09-27 15:52:00,
2013-09-27 09:57:00,35.1,28.2,24.10,North,0,0.0,0.0,76,0.00,,,0.00,meteohub,2013-09-27 15:57:00,
2013-09-27 10:02:00,34.9,27.7,24.10,North,0,0.0,0.0,75,0.00,,,0.00,meteohub,2013-09-27 16:02:00,
2013-09-27 10:07:00,34.9,27.7,24.10,North,0,0.0,0.0,75,0.00,,,0.00,meteohub,2013-09-27 16:07:00,
2013-09-27 10:12:00,34.9,28.4,24.09,North,0,0.0,0.0,77,0.00,,,0.00,meteohub,2013-09-27 16:12:00,
2013-09-27 10:17:00,35.2,28.0,24.09,North,0,0.0,0.0,75,0.00,,,0.00,meteohub,2013-09-27 16:17:00,
2013-09-27 10:22:00,35.6,28.8,24.09,North,0,0.0,0.0,76,0.00,,,0.00,meteohub,2013-09-27 16:22:00,
2013-09-27 10:27:00,36.0,30.0,24.10,North,0,0.0,0.0,79,0.00,,,0.00,meteohub,2013-09-27 16:27:00,
2013-09-27 10:32:00,36.5,29.3,24.09,North,0,0.0,0.0,75,0.00,,,0.00,meteohub,2013-09-27 16:32:00,
2013-09-27 10:37:00,36.7,29.8,24.09,North,0,0.0,0.0,76,0.00,,,0.00,meteohub,2013-09-27 16:37:00,
2013-09-27 10:42:00,37.0,30.6,24.09,North,0,0.0,0.0,77,0.00,,,0.00,meteohub,2013-09-27 16:42:00,
2013-09-27 10:47:00,37.4,32.2,24.09,South,180,0.0,0.0,81,0.00,,,0.00,meteohub,2013-09-27 16:47:00,
2013-09-27 10:57:00,38.1,31.8,24.09,South,180,0.0,0.0,78,0.00,,,0.00,meteohub,2013-09-27 16:57:00,
2013-09-27 11:02:00,38.5,30.9,24.10,South,180,0.0,0.0,74,0.00,,,0.00,meteohub,2013-09-27 17:02:00,
2013-09-27 11:07:00,38.5,30.9,24.09,South,180,0.0,0.0,74,0.00,,,0.00,meteohub,2013-09-27 17:07:00,
2013-09-27 11:12:00,38.3,28.8,24.09,SW,225,10.0,0.0,68,0.00,,,0.00,meteohub,2013-09-27 17:12:00,
2013-09-27 11:17:00,38.7,28.6,24.09,WSW,248,8.0,12.0,67,0.00,,,0.00,meteohub,2013-09-27 17:17:00,
2013-09-27 11:22:00,39.9,28.8,24.09,SW,225,0.0,12.0,64,0.00,,,0.00,meteohub,2013-09-27 17:22:00,
2013-09-27 11:27:00,38.5,29.1,24.09,SW,225,12.0,12.0,69,0.00,,,0.00,meteohub,2013-09-27 17:27:00,
2013-09-27 11:32:00,37.6,28.8,24.09,SSW,203,11.0,15.0,70,0.00,,,0.00,meteohub,2013-09-27 17:32:00,
2013-09-27 11:37:00,37.2,29.1,24.09,West,270,12.0,15.0,72,0.00,,,0.00,meteohub,2013-09-27 17:37:00,
2013-09-27 11:42:00,37.4,28.9,24.08,West,270,18.0,18.0,71,0.00,,,0.00,meteohub,2013-09-27 17:42:00,
2013-09-27 11:47:00,37.4,28.9,24.08,WNW,293,20.0,20.0,71,0.00,,,0.00,meteohub,2013-09-27 17:47:00,
2013-09-27 11:52:00,37.0,28.6,24.08,West,270,21.0,21.0,71,0.00,,,0.00,meteohub,2013-09-27 17:52:00,
2013-09-27 11:57:00,36.9,28.4,24.08,West,270,22.0,22.0,71,0.00,,,0.00,meteohub,2013-09-27 17:57:00,
2013-09-27 12:02:00,36.9,28.8,24.08,West,270,21.0,24.0,72,0.00,,,0.00,meteohub,2013-09-27 18:02:00,
2013-09-27 12:12:00,36.9,28.8,24.08,West,270,20.0,24.0,72,0.00,,,0.00,meteohub,2013-09-27 18:12:00,
2013-09-27 12:17:00,37.0,29.1,24.08,West,270,16.0,21.0,73,0.00,,,0.00,meteohub,2013-09-27 18:17:00,
2013-09-27 12:22:00,37.4,29.5,24.08,WSW,248,21.0,21.0,73,0.00,,,0.00,meteohub,2013-09-27 18:22:00,
2013-09-27 12:27:00,37.4,29.1,24.08,NW,315,21.0,21.0,72,0.00,,,0.00,meteohub,2013-09-27 18:27:00,
2013-09-27 12:32:00,37.8,29.5,24.08,West,270,15.0,21.0,72,0.00,,,0.00,meteohub,2013-09-27 18:32:00,
2013-09-27 12:37:00,37.6,29.1,24.07,SW,225,21.0,22.0,71,0.00,,,0.00,meteohub,2013-09-27 18:37:00,
2013-09-27 12:42:00,37.8,29.5,24.07,West,270,19.0,22.0,72,0.00,,,0.00,meteohub,2013-09-27 18:42:00,
2013-09-27 12:47:00,38.1,29.8,24.07,West,270,17.0,22.0,72,0.00,,,0.00,meteohub,2013-09-27 18:47:00,
2013-09-27 12:52:00,38.7,28.9,24.08,NW,315,26.0,26.0,68,0.00,,,0.00,meteohub,2013-09-27 18:52:00,
2013-09-27 12:57:00,38.7,30.0,24.08,WNW,293,17.0,26.0,71,0.00,,,0.00,meteohub,2013-09-27 18:57:00,
2013-09-27 13:02:00,38.8,29.8,24.08,NW,315,22.0,26.0,70,0.00,,,0.00,meteohub,2013-09-27 19:02:00,
2013-09-27 13:07:00,38.8,29.8,24.08,NW,315,22.0,26.0,70,0.00,,,0.00,meteohub,2013-09-27 19:07:00,
2013-09-27 13:12:00,38.8,29.8,24.08,WSW,248,19.0,22.0,70,0.00,,,0.00,meteohub,2013-09-27 19:12:00,
2013-09-27 13:17:00,38.7,29.7,24.07,NW,315,22.0,22.0,70,0.00,,,0.00,meteohub,2013-09-27 19:17:00,
2013-09-27 13:22:00,38.7,30.0,24.07,SW,225,21.0,22.0,71,0.00,,,0.00,meteohub,2013-09-27 19:22:00,
2013-09-27 13:27:00,38.7,30.0,24.07,West,270,19.0,23.0,71,0.00,,,0.00,meteohub,2013-09-27 19:27:00,
2013-09-27 13:32:00,38.8,30.6,24.07,NW,315,20.0,23.0,72,0.00,,,0.00,meteohub,2013-09-27 19:32:00,
2013-09-27 13:37:00,38.8,30.6,24.06,SW,225,18.0,23.0,72,0.00,,,0.00,meteohub,2013-09-27 19:37:00,
2013-09-27 13:42:00,38.8,30.9,24.06,SW,225,17.0,23.0,73,0.00,,,0.00,meteohub,2013-09-27 19:42:00,
2013-09-27 13:47:00,39.2,30.6,24.06,West,270,20.0,23.0,71,0.00,,,0.00,meteohub,2013-09-27 19:47:00,
2013-09-27 13:52:00,39.4,30.4,24.06,WSW,248,25.0,25.0,70,0.00,,,0.00,meteohub,2013-09-27 19:52:00,
2013-09-27 13:57:00,39.4,30.7,24.06,West,270,23.0,25.0,71,0.00,,,0.00,meteohub,2013-09-27 19:57:00,
2013-09-27 14:02:00,39.4,30.7,24.06,West,270,23.0,25.0,71,0.00,,,0.00,meteohub,2013-09-27 20:02:00,
2013-09-27 14:12:00,39.6,31.3,24.06,WSW,248,20.0,23.0,72,0.00,,,0.00,meteohub,2013-09-27 20:12:00,
2013-09-27 14:17:00,39.7,31.5,24.06,SW,225,21.0,26.0,72,0.00,,,0.00,meteohub,2013-09-27 20:17:00,
2013-09-27 14:22:00,39.9,31.6,24.06,SW,225,22.0,26.0,72,0.00,,,0.00,meteohub,2013-09-27 20:22:00,
2013-09-27 14:27:00,40.1,31.5,24.05,SW,225,23.0,26.0,71,0.00,,,0.00,meteohub,2013-09-27 20:27:00,
2013-09-27 14:32:00,40.5,31.1,24.06,West,270,20.0,27.0,69,0.00,,,0.00,meteohub,2013-09-27 20:32:00,
2013-09-27 14:37:00,40.5,30.7,24.06,WSW,248,23.0,27.0,68,0.00,,,0.00,meteohub,2013-09-27 20:37:00,
2013-09-27 14:42:00,41.0,31.3,24.06,NW,315,17.0,28.0,68,0.00,,,0.00,meteohub,2013-09-27 20:42:00,
2013-09-27 14:47:00,41.2,31.8,24.06,West,270,17.0,28.0,69,0.00,,,0.00,meteohub,2013-09-27 20:47:00,
2013-09-27 14:52:00,41.4,30.6,24.06,West,270,24.0,25.0,65,0.00,,,0.00,meteohub,2013-09-27 20:52:00,
2013-09-27 14:57:00,41.5,29.8,24.06,West,270,23.0,25.0,63,0.00,,,0.00,meteohub,2013-09-27 20:57:00,
2013-09-27 15:02:00,41.7,30.0,24.06,SW,225,23.0,26.0,63,0.00,,,0.00,meteohub,2013-09-27 21:02:00,
2013-09-27 15:07:00,41.7,30.0,24.05,SW,225,23.0,26.0,63,0.00,,,0.00,meteohub,2013-09-27 21:07:00,
2013-09-27 15:12:00,41.2,28.4,24.06,West,270,23.0,25.0,60,0.00,,,0.00,meteohub,2013-09-27 21:12:00,
2013-09-27 15:17:00,40.8,27.7,24.05,West,270,23.0,27.0,59,0.00,,,0.00,meteohub,2013-09-27 21:17:00,
2013-09-27 15:22:00,41.5,28.8,24.05,NW,315,21.0,27.0,60,0.00,,,0.00,meteohub,2013-09-27 21:22:00,
2013-09-27 15:27:00,41.9,28.6,24.05,West,270,23.0,30.0,59,0.00,,,0.00,meteohub,2013-09-27 21:27:00,
2013-09-27 15:32:00,42.3,28.9,24.05,West,270,23.0,30.0,59,0.00,,,0.00,meteohub,2013-09-27 21:32:00,
2013-09-27 15:37:00,42.4,29.1,24.05,NW,315,23.0,30.0,59,0.00,,,0.00,meteohub,2013-09-27 21:37:00,
2013-09-27 15:42:00,42.3,28.6,24.05,NW,315,24.0,30.0,58,0.00,,,0.00,meteohub,2013-09-27 21:42:00,
2013-09-27 15:47:00,42.4,28.8,24.05,West,270,24.0,30.0,58,0.00,,,0.00,meteohub,2013-09-27 21:47:00,
2013-09-27 15:52:00,42.3,28.0,24.04,NW,315,33.0,33.0,57,0.00,,,0.00,meteohub,2013-09-27 21:52:00,
2013-09-27 15:57:00,41.5,27.5,24.04,NW,315,31.0,36.0,57,0.00,,,0.00,meteohub,2013-09-27 21:57:00,
2013-09-27 16:02:00,42.3,28.0,24.05,West,270,33.0,36.0,57,0.00,,,0.00,meteohub,2013-09-27 22:02:00,
2013-09-27 16:07:00,42.3,28.0,24.05,West,270,33.0,36.0,57,0.00,,,0.00,meteohub,2013-09-27 22:07:00,
2013-09-27 16:12:00,42.4,27.9,24.05,NW,315,22.0,33.0,56,0.00,,,0.00,meteohub,2013-09-27 22:12:00,
2013-09-27 16:17:00,42.4,27.9,24.05,West,270,23.0,33.0,56,0.00,,,0.00,meteohub,2013-09-27 22:17:00,
2013-09-27 16:22:00,41.9,27.3,24.04,WNW,293,33.0,33.0,56,0.00,,,0.00,meteohub,2013-09-27 22:22:00,
2013-09-27 16:27:00,41.2,27.5,24.05,West,270,30.0,35.0,58,0.00,,,0.00,meteohub,2013-09-27 22:27:00,
2013-09-27 16:32:00,41.5,28.2,24.05,NW,315,24.0,35.0,59,0.00,,,0.00,meteohub,2013-09-27 22:32:00,
2013-09-27 16:37:00,41.4,28.6,24.05,SW,225,18.0,35.0,60,0.00,,,0.00,meteohub,2013-09-27 22:37:00,
2013-09-27 16:42:00,41.4,28.9,24.05,NW,315,17.0,30.0,61,0.00,,,0.00,meteohub,2013-09-27 22:42:00,
2013-09-27 16:47:00,41.0,28.6,24.05,West,270,20.0,26.0,61,0.00,,,0.00,meteohub,2013-09-27 22:47:00,
2013-09-27 16:52:00,41.5,29.8,24.06,West,270,24.0,26.0,63,0.00,,,0.00,meteohub,2013-09-27 22:52:00,
2013-09-27 16:57:00,41.2,29.1,24.06,West,270,17.0,24.0,62,0.00,,,0.00,meteohub,2013-09-27 22:57:00,
2013-09-27 17:02:00,41.5,29.8,24.06,West,270,15.0,24.0,63,0.00,,,0.00,meteohub,2013-09-27 23:02:00,
2013-09-27 17:07:00,41.5,29.8,24.06,West,270,15.0,24.0,63,0.00,,,0.00,meteohub,2013-09-27 23:07:00,
2013-09-27 17:12:00,41.2,28.8,24.05,NW,315,22.0,22.0,61,0.00,,,0.00,meteohub,2013-09-27 23:12:00,
2013-09-27 17:17:00,41.0,27.9,24.06,West,270,28.0,30.0,59,0.00,,,0.00,meteohub,2013-09-27 23:17:00,
2013-09-27 17:22:00,40.5,28.0,24.06,West,270,20.0,30.0,61,0.00,,,0.00,meteohub,2013-09-27 23:22:00,
2013-09-27 17:27:00,40.1,28.6,24.05,NW,315,24.0,30.0,63,0.00,,,0.00,meteohub,2013-09-27 23:27:00,
2013-09-27 17:32:00,40.1,28.6,24.06,West,270,21.0,28.0,63,0.00,,,0.00,meteohub,2013-09-27 23:32:00,
2013-09-27 17:37:00,40.1,28.9,24.06,NW,315,17.0,24.0,64,0.00,,,0.00,meteohub,2013-09-27 23:37:00,
2013-09-27 17:42:00,39.9,28.4,24.06,West,270,25.0,25.0,63,0.00,,,0.00,meteohub,2013-09-27 23:42:00,
2013-09-27 17:47:00,39.7,28.6,24.06,West,270,25.0,27.0,64,0.00,,,0.00,meteohub,2013-09-27 23:47:00,
2013-09-27 17:52:00,39.9,28.4,24.06,NW,315,26.0,27.0,63,0.00,,,0.00,meteohub,2013-09-27 23:52:00,
2013-09-27 17:57:00,40.3,27.9,24.06,West,270,26.0,27.0,61,0.00,,,0.00,meteohub,2013-09-27 23:57:00,
2013-09-27 18:02:00,40.5,28.0,24.06,West,270,21.0,32.0,61,0.00,,,0.00,meteohub,2013-09-28 00:02:00,
2013-09-27 18:07:00,40.5,28.0,24.06,West,270,21.0,32.0,61,0.00,,,0.00,meteohub,2013-09-28 00:07:00,
2013-09-27 18:12:00,39.4,28.2,24.06,West,270,21.0,27.0,64,0.00,,,0.00,meteohub,2013-09-28 00:12:00,
2013-09-27 18:17:00,39.2,27.3,24.06,West,270,29.0,29.0,62,0.00,,,0.00,meteohub,2013-09-28 00:17:00,
2013-09-27 18:22:00,39.6,26.8,24.06,NW,315,27.0,29.0,60,0.00,,,0.00,meteohub,2013-09-28 00:22:00,
2013-09-27 18:27:00,39.4,27.5,24.06,NW,315,26.0,34.0,62,0.00,,,0.00,meteohub,2013-09-28 00:27:00,
2013-09-27 18:32:00,39.2,27.7,24.07,NW,315,17.0,34.0,63,0.00,,,0.00,meteohub,2013-09-28 00:32:00,
2013-09-27 18:37:00,38.8,27.7,24.06,NW,315,19.0,34.0,64,0.00,,,0.00,meteohub,2013-09-28 00:37:00,
2013-09-27 18:42:00,39.0,27.9,24.07,West,270,17.0,30.0,64,0.00,,,0.00,meteohub,2013-09-28 00:42:00,
2013-09-27 18:47:00,38.8,27.3,24.07,NW,315,17.0,21.0,63,0.00,,,0.00,meteohub,2013-09-28 00:47:00,
2013-09-27 18:52:00,39.2,27.0,24.07,NW,315,22.0,22.0,61,0.00,,,0.00,meteohub,2013-09-28 00:52:00,
2013-09-27 18:57:00,39.0,27.1,24.07,NW,315,19.0,26.0,62,0.00,,,0.00,meteohub,2013-09-28 00:57:00,
2013-09-27 19:02:00,38.8,27.0,24.07,West,270,23.0,26.0,62,0.00,,,0.00,meteohub,2013-09-28 01:02:00,
2013-09-27 19:07:00,38.8,27.0,24.07,West,270,23.0,27.0,62,0.00,,,0.00,meteohub,2013-09-28 01:07:00,
2013-09-27 19:12:00,39.0,27.1,24.06,West,270,22.0,27.0,62,0.00,,,0.00,meteohub,2013-09-28 01:12:00,
2013-09-27 19:17:00,39.0,27.1,24.07,NW,315,21.0,25.0,62,0.00,,,0.00,meteohub,2013-09-28 01:17:00,
2013-09-27 19:22:00,38.7,27.1,24.07,West,270,24.0,25.0,63,0.00,,,0.00,meteohub,2013-09-28 01:22:00,
2013-09-27 19:27:00,38.7,27.9,24.07,North,0,19.0,25.0,65,0.00,,,0.00,meteohub,2013-09-28 01:27:00,
2013-09-27 19:32:00,38.5,27.7,24.07,West,270,21.0,24.0,65,0.00,,,0.00,meteohub,2013-09-28 01:32:00,
2013-09-27 19:37:00,38.7,27.5,24.07,SW,225,20.0,24.0,64,0.00,,,0.00,meteohub,2013-09-28 01:37:00,
2013-09-27 19:42:00,38.5,27.3,24.07,West,270,24.0,24.0,64,0.00,,,0.00,meteohub,2013-09-28 01:42:00,
2013-09-27 19:47:00,38.5,27.7,24.06,West,270,25.0,25.0,65,0.00,,,0.00,meteohub,2013-09-28 01:47:00,
2013-09-27 19:52:00,38.8,27.7,24.06,West,270,27.0,29.0,64,0.00,,,0.00,meteohub,2013-09-28 01:52:00,
2013-09-27 20:02:00,38.3,27.9,24.07,SW,225,17.0,34.0,66,0.00,,,0.00,meteohub,2013-09-28 02:02:00,
2013-09-27 20:07:00,38.3,27.9,24.07,SW,225,17.0,34.0,66,0.00,,,0.00,meteohub,2013-09-28 02:07:00,
2013-09-27 20:12:00,38.1,28.2,24.07,West,270,20.0,23.0,67,0.00,,,0.00,meteohub,2013-09-28 02:12:00,
2013-09-27 20:17:00,37.9,28.8,24.07,SW,225,15.0,22.0,69,0.00,,,0.00,meteohub,2013-09-28 02:17:00,
2013-09-27 20:22:00,37.8,28.6,24.07,West,270,21.0,22.0,69,0.00,,,0.00,meteohub,2013-09-28 02:22:00,
2013-09-27 20:27:00,37.6,29.1,24.07,NW,315,19.0,22.0,71,0.00,,,0.00,meteohub,2013-09-28 02:27:00,
2013-09-27 20:32:00,37.4,29.1,24.08,NW,315,17.0,21.0,72,0.00,,,0.00,meteohub,2013-09-28 02:32:00,
2013-09-27 20:37:00,37.2,29.3,24.08,SW,225,24.0,24.0,73,0.00,,,0.00,meteohub,2013-09-28 02:37:00,
2013-09-27 20:42:00,36.9,30.4,24.08,West,270,28.0,28.0,77,0.00,,,0.00,meteohub,2013-09-28 02:42:00,
2013-09-27 20:47:00,36.3,30.7,24.08,SW,225,26.0,29.0,80,0.00,,,0.00,meteohub,2013-09-28 02:47:00,
2013-09-27 20:52:00,35.8,31.1,24.07,West,270,21.0,29.0,83,0.00,,,0.00,meteohub,2013-09-28 02:52:00,
2013-09-27 20:57:00,35.2,31.5,24.08,West,270,19.0,29.0,86,0.00,,,0.00,meteohub,2013-09-28 02:57:00,
2013-09-27 21:02:00,35.2,31.8,24.08,SW,225,18.0,27.0,87,0.00,,,0.00,meteohub,2013-09-28 03:02:00,
2013-09-27 21:07:00,35.2,31.8,24.08,SW,225,18.0,23.0,87,0.00,,,0.00,meteohub,2013-09-28 03:07:00,
2013-09-27 21:12:00,34.9,32.2,24.07,SW,225,15.0,21.0,90,0.00,,,0.00,meteohub,2013-09-28 03:12:00,
2013-09-27 21:17:00,34.7,32.4,24.07,SW,225,12.0,18.0,91,0.00,,,0.00,meteohub,2013-09-28 03:17:00,
2013-09-27 21:22:00,34.7,32.4,24.07,SW,225,8.0,18.0,91,0.00,,,0.00,meteohub,2013-09-28 03:22:00,
2013-09-27 21:27:00,34.7,32.4,24.07,SW,225,10.0,17.0,91,0.00,,,0.00,meteohub,2013-09-28 03:27:00,
2013-09-27 21:32:00,34.7,32.4,24.07,SW,225,17.0,17.0,91,0.00,,,0.00,meteohub,2013-09-28 03:32:00,
2013-09-27 21:37:00,35.2,32.0,24.06,SW,225,15.0,17.0,88,0.00,,,0.00,meteohub,2013-09-28 03:37:00,
2013-09-27 21:42:00,35.6,31.8,24.06,SW,225,20.0,20.0,86,0.00,,,0.00,meteohub,2013-09-28 03:42:00,
2013-09-27 21:47:00,36.1,31.5,24.07,WSW,248,21.0,23.0,83,0.00,,,0.00,meteohub,2013-09-28 03:47:00,
2013-09-27 21:52:00,36.1,31.5,24.06,SW,225,22.0,23.0,83,0.00,,,0.00,meteohub,2013-09-28 03:52:00,
2013-09-27 21:57:00,36.5,31.3,24.06,SW,225,22.0,30.0,81,0.00,,,0.00,meteohub,2013-09-28 03:57:00,
2013-09-27 22:02:00,36.3,31.1,24.06,West,270,25.0,30.0,81,0.00,,,0.00,meteohub,2013-09-28 04:02:00,
2013-09-27 22:07:00,36.3,31.1,24.06,West,270,25.0,30.0,81,0.00,,,0.00,meteohub,2013-09-28 04:07:00,
2013-09-27 22:12:00,36.9,30.6,24.06,NW,315,24.0,25.0,78,0.00,,,0.00,meteohub,2013-09-28 04:12:00,
2013-09-27 22:17:00,37.4,30.6,24.06,SW,225,20.0,27.0,76,0.00,,,0.00,meteohub,2013-09-28 04:17:00,
2013-09-27 22:22:00,37.4,30.6,24.06,West,270,35.0,35.0,76,0.00,,,0.00,meteohub,2013-09-28 04:22:00,
2013-09-27 22:27:00,37.4,30.2,24.06,West,270,25.0,35.0,75,0.00,,,0.00,meteohub,2013-09-28 04:27:00,
2013-09-27 22:32:00,37.8,30.2,24.06,NW,315,27.0,35.0,74,0.00,,,0.00,meteohub,2013-09-28 04:32:00,
2013-09-27 22:37:00,37.8,30.2,24.06,West,270,18.0,35.0,74,0.00,,,0.00,meteohub,2013-09-28 04:37:00,
2013-09-27 22:42:00,37.8,30.2,24.06,SW,225,27.0,30.0,74,0.00,,,0.00,meteohub,2013-09-28 04:42:00,
2013-09-27 22:47:00,37.8,30.2,24.06,West,270,21.0,31.0,74,0.00,,,0.00,meteohub,2013-09-28 04:47:00,
2013-09-27 22:52:00,37.8,30.2,24.06,SW,225,21.0,31.0,74,0.00,,,0.00,meteohub,2013-09-28 04:52:00,
2013-09-27 22:57:00,37.6,30.4,24.06,SW,225,20.0,31.0,75,0.00,,,0.00,meteohub,2013-09-28 04:57:00,
2013-09-27 23:02:00,37.4,30.2,24.06,West,270,26.0,29.0,75,0.00,,,0.00,meteohub,2013-09-28 05:02:00,
2013-09-27 23:07:00,37.4,30.2,24.06,West,270,26.0,27.0,75,0.00,,,0.00,meteohub,2013-09-28 05:07:00,
2013-09-27 23:12:00,37.0,30.6,24.06,SW,225,27.0,27.0,77,0.00,,,0.00,meteohub,2013-09-28 05:12:00,
2013-09-27 23:17:00,37.2,30.4,24.06,West,270,35.0,35.0,76,0.00,,,0.00,meteohub,2013-09-28 05:17:00,
2013-09-27 23:22:00,37.0,30.6,24.06,West,270,27.0,35.0,77,0.00,,,0.00,meteohub,2013-09-28 05:22:00,
2013-09-27 23:27:00,37.2,30.7,24.06,West,270,22.0,35.0,77,0.00,,,0.00,meteohub,2013-09-28 05:27:00,
2013-09-27 23:32:00,36.9,30.6,24.06,West,270,23.0,35.0,78,0.00,,,0.00,meteohub,2013-09-28 05:32:00,
2013-09-27 23:37:00,36.9,30.6,24.06,West,270,22.0,30.0,78,0.00,,,0.00,meteohub,2013-09-28 05:37:00,
2013-09-27 23:42:00,36.9,30.9,24.06,NW,315,21.0,30.0,79,0.00,,,0.00,meteohub,2013-09-28 05:42:00,
2013-09-27 23:47:00,36.9,30.6,24.05,SW,225,21.0,27.0,78,0.00,,,0.00,meteohub,2013-09-28 05:47:00,
2013-09-27 23:52:00,37.0,30.6,24.06,SW,225,15.0,23.0,77,0.00,,,0.00,meteohub,2013-09-28 05:52:00,
2013-09-27 23:57:00,37.2,30.7,24.06,SW,225,16.0,23.0,77,0.00,,,0.00,meteohub,2013-09-28 05:57:00,